Weather History for Fort Madison, IA

Change the Weather History Date:

Tuesday, October 25, 2011

  Actual Average Record
Temperature  
Mean Temperature 66 °F -  
Max Temperature 78 °F 59 °F 82 °F (1963)
Min Temperature 55 °F 40 °F 24 °F (1981)
Cooling Degree Days 2    
Growing Degree Days 16 (Base 50)    
Moisture  
Dew Point 46 °F    
Average Humidity 48    
Maximum Humidity 67    
Minimum Humidity 34    
Precipitation  
Precipitation 0.00 in - - ()
Sea Level Pressure  
Sea Level Pressure 29.85 in    
Wind  
Wind Speed 12 mph (South)    
Max Wind Speed 23 mph    
Max Gust Speed 30 mph    
Visibility 10 miles    
Events Rain    
Averages and records for this station are not official NWS values.
T = Trace of Precipitation, MM = Missing Value Source: NWS Daily Summary

Daily Weather History Graph

Daily Weather History Graph

Search for Another Location

Airport:

Trip Planner

Search our weather history database for the weather conditions in past years. The results will help you decide how hot, cold, wet, or windy it might be!

Date:

Astronomy

Oct. 25, 2011 Rise Set
Actual Time 7:27 AM CDT 6:10 PM CDT
Civil Twilight 6:59 AM CDT 6:38 PM CDT
Nautical Twilight 6:27 AM CDT 7:10 PM CDT
Astronomical Twilight 5:55 AM CDT 7:42 PM CDT
Moon 5:59 AM CDT (10/25) 5:12 PM CDT (10/25)
Length of Visible Light 11h 39m
Length of Day
10h 43m
Waning Crescent, 2% of the Moon is Illuminated
Oct 25
Waning Crescent
Oct 26
New
Nov 2
First Quarter
Nov 10
Full
Nov 18
Last Quarter

Hourly Weather History & Observations

Time (CDT) Temp. Dew Point Humidity Pressure Visibility Wind Dir Wind Speed Gust Speed Precip Events Conditions
12:35 AM 55.4 °F 37.4 °F 51% 30.01 in 10.0 mi SSE 11.5 mph - N/A   Clear
12:55 AM 57.2 °F 37.4 °F 48% 30.00 in 10.0 mi South 12.7 mph - N/A   Clear
1:15 AM 55.4 °F 37.4 °F 51% 30.00 in 10.0 mi South 10.4 mph - N/A   Clear
1:35 AM 57.2 °F 37.4 °F 48% 29.99 in 10.0 mi South 11.5 mph 16.1 mph N/A   Clear
1:55 AM 57.2 °F 37.4 °F 48% 29.99 in 10.0 mi South 12.7 mph - N/A   Clear
2:15 AM 57.2 °F 37.4 °F 48% 29.99 in 10.0 mi South 10.4 mph - N/A   Clear
2:35 AM 57.2 °F 39.2 °F 51% 29.98 in 10.0 mi South 10.4 mph - N/A   Clear
2:55 AM 57.2 °F 39.2 °F 51% 29.98 in 10.0 mi South 10.4 mph - N/A   Clear
3:15 AM 57.2 °F 39.2 °F 51% 29.97 in 10.0 mi South 11.5 mph - N/A   Clear
3:35 AM 57.2 °F 41.0 °F 55% 29.96 in 10.0 mi South 12.7 mph - N/A   Clear
3:55 AM 57.2 °F 42.8 °F 59% 29.95 in 10.0 mi South 11.5 mph - N/A   Clear
4:15 AM 57.2 °F 42.8 °F 59% 29.95 in 10.0 mi South 10.4 mph - N/A   Clear
4:35 AM 57.2 °F 42.8 °F 59% 29.94 in 10.0 mi South 11.5 mph - N/A   Clear
4:55 AM 57.2 °F 44.6 °F 63% 29.94 in 10.0 mi South 11.5 mph - N/A   Clear
5:15 AM 57.2 °F 44.6 °F 63% 29.93 in 10.0 mi South 11.5 mph - N/A   Clear
5:35 AM 57.2 °F 44.6 °F 63% 29.92 in 10.0 mi South 11.5 mph - N/A   Clear
5:55 AM 57.2 °F 46.4 °F 67% 29.92 in 10.0 mi South 11.5 mph 17.3 mph N/A   Clear
6:15 AM 59.0 °F 46.4 °F 63% 29.91 in 10.0 mi South 12.7 mph 17.3 mph N/A   Clear
6:35 AM 60.8 °F 46.4 °F 59% 29.91 in 10.0 mi South 12.7 mph 18.4 mph N/A   Scattered Clouds
6:55 AM 60.8 °F 46.4 °F 59% 29.90 in 10.0 mi South 15.0 mph 20.7 mph N/A   Clear
7:15 AM 60.8 °F 46.4 °F 59% 29.89 in 10.0 mi South 13.8 mph 21.9 mph N/A   Clear
7:35 AM 62.6 °F 46.4 °F 55% 29.89 in 10.0 mi South 12.7 mph 23.0 mph N/A   Clear
8:15 AM 62.6 °F 46.4 °F 55% 29.89 in 10.0 mi SW 11.5 mph 24.2 mph N/A Rain Light Rain
8:35 AM 62.6 °F 48.2 °F 59% 29.88 in 10.0 mi South 17.3 mph 21.9 mph N/A   Scattered Clouds
8:55 AM 62.6 °F 46.4 °F 55% 29.87 in 10.0 mi South 15.0 mph 24.2 mph N/A   Clear
9:15 AM 64.4 °F 46.4 °F 52% 29.87 in 10.0 mi South 12.7 mph 24.2 mph N/A   Clear
9:35 AM 64.4 °F 46.4 °F 52% 29.86 in 10.0 mi South 15.0 mph 23.0 mph N/A   Clear
9:55 AM 66.2 °F 46.4 °F 49% 29.85 in 10.0 mi South 17.3 mph 23.0 mph N/A   Clear
10:15 AM 68.0 °F 46.4 °F 46% 29.84 in 10.0 mi South 17.3 mph 25.3 mph N/A   Clear
10:35 AM 68.0 °F 46.4 °F 46% 29.84 in 10.0 mi SSW 17.3 mph 25.3 mph N/A   Clear
10:55 AM 68.0 °F 46.4 °F 46% 29.83 in 10.0 mi SSW 17.3 mph 27.6 mph N/A   Clear
11:15 AM 69.8 °F 46.4 °F 43% 29.82 in 10.0 mi SSW 17.3 mph 20.7 mph N/A   Clear
11:55 AM 73.4 °F 46.4 °F 38% 29.81 in 10.0 mi SSW 12.7 mph - N/A   Clear
12:15 PM 75.2 °F 46.4 °F 36% 29.80 in 10.0 mi SSW 11.5 mph 19.6 mph N/A   Clear
12:35 PM 77.0 °F 48.2 °F 36% 29.78 in 10.0 mi SSW 19.6 mph 25.3 mph N/A   Clear
12:55 PM 78.8 °F 48.2 °F 34% 29.77 in 10.0 mi SSW 20.7 mph 27.6 mph N/A   Clear
1:15 PM 78.8 °F 48.2 °F 34% 29.76 in 10.0 mi SSW 23.0 mph 29.9 mph N/A   Clear
1:35 PM 77.0 °F 48.2 °F 36% 29.75 in 10.0 mi SSW 19.6 mph 28.8 mph N/A   Clear
2:15 PM 78.8 °F 48.2 °F 34% 29.73 in 10.0 mi SSW 11.5 mph 23.0 mph N/A   Clear
2:35 PM 78.8 °F 50.0 °F 36% 29.72 in 10.0 mi SSW 18.4 mph 28.8 mph N/A   Clear
3:15 PM 78.8 °F 50.0 °F 36% 29.70 in 10.0 mi SSW 16.1 mph 21.9 mph N/A   Scattered Clouds
3:35 PM 78.8 °F 51.8 °F 39% 29.70 in 10.0 mi SSW 15.0 mph - N/A   Scattered Clouds
3:55 PM 78.8 °F 51.8 °F 39% 29.70 in 10.0 mi SW 9.2 mph 17.3 mph N/A   Scattered Clouds
4:15 PM 78.8 °F 51.8 °F 39% 29.70 in 10.0 mi South 8.1 mph - N/A   Mostly Cloudy
4:35 PM 78.8 °F 51.8 °F 39% 29.70 in 10.0 mi SSW 6.9 mph - N/A   Overcast
4:55 PM 77.0 °F 51.8 °F 41% 29.70 in 10.0 mi South 6.9 mph - N/A   Overcast
5:15 PM 77.0 °F 51.8 °F 41% 29.70 in 10.0 mi SSW 8.1 mph - N/A   Overcast
5:35 PM 78.8 °F 51.8 °F 39% 29.70 in 10.0 mi SW 8.1 mph - N/A   Overcast
5:55 PM 78.8 °F 51.8 °F 39% 29.70 in 10.0 mi SW 6.9 mph - N/A   Overcast
6:35 PM 75.2 °F 53.6 °F 47% 29.71 in 10.0 mi South 4.6 mph - N/A   Mostly Cloudy
6:55 PM 75.2 °F 53.6 °F 47% 29.70 in 10.0 mi SSW 5.8 mph - N/A   Mostly Cloudy
7:15 PM 75.2 °F 53.6 °F 47% 29.71 in 10.0 mi SW 5.8 mph - N/A   Mostly Cloudy
7:35 PM 75.2 °F 53.6 °F 47% 29.71 in 10.0 mi SW 8.1 mph - N/A   Overcast
8:15 PM 71.6 °F 53.6 °F 53% 29.72 in 10.0 mi West 4.6 mph - N/A   Clear
8:35 PM 71.6 °F 53.6 °F 53% 29.72 in 10.0 mi WNW 6.9 mph - N/A   Mostly Cloudy
8:55 PM 71.6 °F 53.6 °F 53% 29.72 in 10.0 mi NW 4.6 mph - N/A   Mostly Cloudy
9:15 PM 69.8 °F 53.6 °F 56% 29.73 in 10.0 mi NW 4.6 mph - N/A   Scattered Clouds
9:35 PM 68.0 °F 53.6 °F 60% 29.72 in 10.0 mi Calm Calm - N/A   Scattered Clouds
9:55 PM 66.2 °F 53.6 °F 64% 29.73 in 10.0 mi Calm Calm - N/A   Clear
10:15 PM 66.2 °F 53.6 °F 64% 29.74 in 10.0 mi Calm Calm - N/A   Scattered Clouds
10:35 PM 64.4 °F 53.6 °F 68% 29.76 in 10.0 mi SW 3.5 mph - N/A   Overcast
10:55 PM 64.4 °F 53.6 °F 68% 29.76 in 10.0 mi SW 5.8 mph - N/A   Scattered Clouds
11:15 PM 66.2 °F 53.6 °F 64% 29.77 in 10.0 mi West 3.5 mph - N/A   Clear
11:35 PM 62.6 °F 51.8 °F 68% 29.77 in 10.0 mi WNW 6.9 mph - N/A   Clear
11:55 PM 62.6 °F 51.8 °F 68% 29.78 in 10.0 mi WNW 10.4 mph - N/A   Clear